Regional Weather Roundup
Issued by NWS

Home | Current Version | Previous Version | Graphics & Text | Print | Product List | Glossary On
Versions: 1 2 3 4 5 6 7 8 9 10 11 12 13 14 15 16 17 18 19 20 21 22 23 24 25 26 27 28 29 30 31 32 33 34 35 36 37 38 39 40 41 42 43 44 45 46 47 48 49 50
000
ASUS43 KIND 291309
RWRIN

WEATHER ROUNDUP FOR INDIANA
NATIONAL WEATHER SERVICE INDIANAPOLIS IN
900 AM EDT SUN MAR 29 2015

NOTE: "FAIR" INDICATES FEW OR NO CLOUDS BELOW 12,000 FEET WITH NO
SIGNIFICANT WEATHER AND/OR OBSTRUCTIONS TO VISIBILITY.

* - STATION DOES NOT REPORT WEATHER SUCH AS PRECIPITATION OR FOG.

+ - STATION NOT QUALITY CONTROLLED BY THE NATIONAL WEATHER SERVICE.
    USE DATA WITH CAUTION...ESPECIALLY DEWPOINT AND RELATIVE
    HUMIDITY OBSERVATIONS.

INZ001>003-010>013-019-020-291400-
NORTHWEST INDIANA

CITY           SKY/WX    TMP DP  RH WIND       PRES   REMARKS
GARY /AIRPORT/ MOSUNNY   32  12  43 S20       30.19R WCI  20
KNOX *+          N/A     32   5  32 S14G21    30.20R WCI  22
LA PORTE +     MOSUNNY   32  21  64 SW9       30.20R WCI  24
MICHIGAN CITY+ PTSUNNY   32  14  47 S15G22    30.20R WCI  22
MONTICELLO +   MOSUNNY   30  19  61 S8        30.20F WCI  23
RENSSELAER +   MOSUNNY   30  23  74 S13       30.22R WCI  20
VALPARAISO     PTSUNNY   29  19  66 S12       30.21R WCI  19

$$

LMZ046-743>745-291400-
SOUTHERN LAKE MICHIGAN

STATION/POSITION TIME  TEMP WIND        PRES
                       AIR  DIR/SP/G
                 (UTC) (F)  (DEG/KT/KT) (MB)
BURNS HARBOR     1300   30  180/ 11/ 22 1022.7R
MICHIGAN CITY    1300   29  160/ 15/ 18   N/A

$$

INZ004-005-014>016-021>024-291400-
NORTH CENTRAL INDIANA

CITY           SKY/WX    TMP DP  RH WIND       PRES   REMARKS
ELKHART        FAIR      30  14  51 S12       30.20F WCI  21
GOSHEN         MOSUNNY   30  17  58 S18G25    30.19F WCI  18
LOGANSPORT +   MOSUNNY   30  19  64 S14       30.23F WCI  20
PERU/GRISSOM   MOSUNNY   29  19  64 S13       30.21F WCI  19
ROCHESTER +    MOSUNNY   32  21  64 S13G21    30.22F WCI  22
SOUTH BEND     MOSUNNY   31  16  54 S14       30.20R WCI  21
WARSAW +       SUNNY     28  18  64 S9G16     30.21F WCI  20

$$

INZ006>009-017-018-025>027-291400-
NORTHEAST INDIANA

CITY           SKY/WX    TMP DP  RH WIND       PRES   REMARKS
ANGOLA *+      SUNNY     27  18  69 S12       30.21F WCI  16
AUBURN +       SUNNY     30  18  59 S9        30.25S WCI  22
FORT WAYNE     MOSUNNY   29  19  66 S14       30.26F WCI  18
HUNTINGTON +   MOSUNNY   28  15  56 S8        30.26S WCI  20

$$

INZ028-029-035-036-043>045-051>053-291400-
WEST CENTRAL INDIANA

CITY           SKY/WX    TMP DP  RH WIND       PRES   REMARKS
CRAWFORDSVL +  SUNNY     29  14  54 S15       30.23S WCI  18
GREENCASTLE +  SUNNY     30  18  59 S12       30.25F WCI  21
LAFAYETTE      SUNNY     30  17  58 S10G17    30.22F WCI  21
TERRE HAUTE    SUNNY     31  18  58 S14       30.25F WCI  21

$$

INZ030>032-037>040-046>048-054>057-064-065-291400-
CENTRAL INDIANA

CITY           SKY/WX    TMP DP  RH WIND       PRES   REMARKS
CP ATTERBURY + SUNNY     28  19  69 S7        30.31S WCI  21
FISHERS *+     SUNNY     30  19  64 S15       30.26F WCI  19
FRANKFORT +    SUNNY     31  21  67 SE10      30.24F WCI  22
GREENWOOD *+   SUNNY     28  14  54 SE13      30.28F WCI  18
INDIANAPOLIS   MOSUNNY   29  16  58 S8        30.25F WCI  21
-EAGLE CREEK   SUNNY     29  15  56 SE8       30.26F WCI  21
KOKOMO *+        N/A     28  19  69 S16G22    30.24F WCI  17
MARION +       SUNNY     28  18  64 S14       30.27S WCI  17
MT COMFORT *+  SUNNY     30  10  43 S12       30.28F WCI  21
SHELBYVILLE    SUNNY     31  18  58 S12       30.29F WCI  22
ZIONSVILLE +   SUNNY     30  16  56 S14       30.25F WCI  20

$$

INZ033-034-041-042-049-050-058-059-291400-
EAST CENTRAL INDIANA

CITY           SKY/WX    TMP DP  RH WIND       PRES   REMARKS
MUNCIE         MOSUNNY   29  16  58 S12       30.27F WCI  19

$$

INZ060-061-067>069-081>083-085>088-291400-
SOUTHWEST INDIANA

CITY           SKY/WX    TMP DP  RH WIND       PRES   REMARKS
EVANSVILLE     SUNNY     35  20  54 SE9       30.31S WCI  28
HUNTINGBURG *+ SUNNY     30  18  59 S7        30.32S WCI  23
WASHINGTON +   SUNNY     31  19  59 S13       30.29F WCI  22

$$

INZ062-063-066-070>080-084-089>092-291400-
SOUTH CENTRAL AND SOUTHEAST INDIANA

CITY           SKY/WX    TMP DP  RH WIND       PRES   REMARKS
BEDFORD +      SUNNY     30  18  59 S8        30.30S WCI  23
BLOOMINGTON    SUNNY     28  18  66 SE8       30.28S WCI  20
NORTH VERNON + SUNNY     30  16  55 SE8       30.33R WCI  23
SEYMOUR +      SUNNY     32  19  59 S8        30.32S WCI  25

$$




USA.gov is the U.S. government's official web portal to all federal, state and local government web resources and services.